www.pogodaiklimat.ru
ПОГОДА в Шахрисабзе

Архив погоды в Шахрисабзе (Кашкадарьинская область, Узбекистан)

Время
и дата
22:50 16.04
23:10 16.04
23:20 16.04
23:30 16.04
23:50 16.04
00:00 17.04
00:10 17.04
00:20 17.04
00:40 17.04
00:50 17.04
01:00 17.04
01:10 17.04
01:20 17.04
01:30 17.04
02:00 17.04
02:10 17.04
02:20 17.04
02:30 17.04
02:40 17.04
02:50 17.04
03:10 17.04
03:20 17.04
03:30 17.04
03:40 17.04
03:50 17.04
04:00 17.04
04:20 17.04
04:40 17.04
05:00 17.04
05:30 17.04
05:40 17.04
05:50 17.04
06:00 17.04
06:10 17.04
06:20 17.04
06:30 17.04
06:40 17.04
07:00 17.04
07:10 17.04
07:20 17.04
08:40 17.04
09:00 17.04
10:40 17.04
16:20 17.04
16:40 17.04
16:50 17.04
17:00 17.04
17:10 17.04
17:20 17.04
17:40 17.04
17:50 17.04
18:00 17.04
18:10 17.04
18:20 17.04
18:30 17.04
18:50 17.04
19:00 17.04
19:30 17.04
19:40 17.04
20:00 17.04
20:20 17.04
20:30 17.04
20:50 17.04
21:00 17.04
21:20 17.04
21:30 17.04
21:40 17.04
22:00 17.04
22:10 17.04
22:20 17.04
22:40 17.04
22:50 17.04
23:00 17.04
23:10 17.04
23:20 17.04
23:30 17.04
23:40 17.04
00:00 18.04
00:10 18.04
00:20 18.04
00:40 18.04
00:50 18.04
01:10 18.04
01:20 18.04
01:30 18.04
01:40 18.04
02:00 18.04
02:10 18.04
02:20 18.04
02:40 18.04
02:50 18.04
03:00 18.04
03:10 18.04
03:20 18.04
03:30 18.04
03:40 18.04
03:50 18.04
04:10 18.04
04:20 18.04
04:40 18.04
04:50 18.04
05:00 18.04
05:50 18.04
06:00 18.04
06:10 18.04
06:20 18.04
06:30 18.04
06:40 18.04
07:00 18.04
07:10 18.04
07:20 18.04
07:40 18.04
08:00 18.04
08:10 18.04
08:20 18.04
12:10 20.04
12:20 20.04
12:30 20.04
12:40 20.04
12:50 20.04
13:00 20.04
13:10 20.04
13:20 20.04
13:30 20.04
13:40 20.04
13:50 20.04
14:00 20.04
14:10 20.04
14:20 20.04
14:30 20.04
14:40 20.04
14:50 20.04
15:00 20.04
15:10 20.04
15:40 20.04
15:50 20.04
16:00 20.04
16:10 20.04
16:20 20.04
16:30 20.04
16:40 20.04
16:50 20.04
17:00 20.04
17:10 20.04
Ветер
(напр.,м/с)
Видимость Явления Солнечная радиация
(Вт/м2)
Т
(С)
Тd
(С)
f
(%)
Тe
(С)
Тes
(С)
Комфортность P
(гПа)
Po
(гПа)
Тmin
(С)
Tmax
(С)
R
(мм)
С 0.3
{1.2}
+10.9 +10.9 100 +12 +12 1022.6 949.0 +11.1 +10.9
В 0.4
{1.8}
+10.9 +10.9 100 +12 +12 1022.6 949.0 +10.9 +10.9
В 0.6
{2.0}
+10.9 +10.9 100 +11 +11 1022.5 948.9 +10.9 +10.8
В 0.7
{2.8}
+11.2 +11.2 100 +11 +11 1022.4 948.8 +11.3 +10.9
ЮВ 0.4
{1.8}
+10.8 +10.8 100 +11 +11 1022.4 948.8 +11.0 +10.8
С 0.4
{1.6}
+10.8 +10.8 100 +11 +11 1022.3 948.7 +10.8 +10.7
СВ 0.4
{1.2}
+10.7 +10.7 100 +11 +11 1022.2 948.6 +10.8 +10.7
В 0.5
{2.0}
+10.6 +10.6 100 +11 +11 1022.0 948.4 +10.8 +10.6
ЮВ 0.4
{1.7}
+10.2 +10.2 100 +11 +11 1021.5 947.9 +10.5 +10.3
ЮВ 0.6
{1.9}
+10.8 +10.8 100 +11 +11 1021.4 947.8 +10.8 +10.2
ЮВ 1.2
{3.4}
+11.1 +10.8 98 +10 +10 1021.4 947.8 +11.1 +10.8
В 0.9
{2.9}
+11.0 +10.6 98 +11 +11 1021.1 947.6 +11.1 +11.0
В 1.4
{3.2}
+10.9 +10.5 98 +10 +10 1020.9 947.4 +11.0 +10.9
В 0.5
{2.0}
+10.7 +10.5 99 +11 +11 1020.7 947.2 +10.9 +10.7
ЮВ 0.9
{3.0}
+10.9 +10.3 96 +11 +11 1020.4 946.9 +10.9 +10.7
ЮВ 1.3
{2.8}
+10.9 +10.3 96 +10 +10 1020.3 946.8 +11.0 +10.9
СВ 0.3
{0.9}
+10.5 +10.2 98 +12 +12 1020.3 946.8 +10.9 +10.5
ЮВ 0.5
{1.8}
+10.2 +10.2 100 +11 +11 1020.2 946.7 +10.5 +10.2
СВ 0.3
{0.9}
+9.9 +9.9 100 +11 +11 1020.3 946.8 +10.2 +9.8
СВ 0.3
{1.1}
+9.9 +9.9 100 +11 +11 1020.3 946.8 +10.0 +9.9
С 0.4
{1.4}
+9.7 +9.7 100 +10 +10 1020.4 946.9 +9.9 +9.7
СВ 0.5
{1.2}
+9.7 +9.7 100 +10 +10 1020.5 947.0 +9.7 +9.6
С 0.3
{1.1}
+9.7 +9.7 100 +11 +11 1020.6 947.1 +9.7 +9.6
СВ 0.5
{1.3}
+9.6 +9.6 100 +10 +10 1020.6 947.1 +9.7 +9.6
З 0.3
{0.9}
+9.3 +9.3 100 +10 +10 1020.6 947.1 +9.6 +9.3
СВ 0.7
{1.7}
+9.5 +9.5 100 +9 +9 1020.5 947.0 +9.5 +9.3
В 0.7
{2.0}
+9.5 +9.5 100 +9 +9 1020.3 946.8 +9.5 +9.4
ЮВ 1.0
{3.0}
+9.8 +9.2 96 +9 +9 1019.9 946.4 +9.8 +9.4
В 0.7
{2.0}
+9.7 +9.0 96 +10 +10 1019.9 946.4 +9.8 +9.7
В 0.6
{1.8}
+9.4 +8.8 96 +9 +9 1019.9 946.4 +9.5 +9.4
СВ 0.5
{1.6}
+9.2 +8.7 97 +9 +9 1019.9 946.4 +9.4 +9.2
В 0.6
{1.7}
+9.2 +8.7 97 +9 +9 1020.0 946.5 +9.3 +9.2
В 0.5
{1.2}
+9.2 +8.8 97 +9 +9 1019.9 946.4 +9.3 +9.1
СВ 0.6
{1.9}
+9.1 +8.7 97 +9 +9 1019.9 946.4 +9.2 +9.1
СВ 1.1
{2.2}
+9.2 +8.6 97 +8 +8 1019.8 946.3 +9.2 +9.1
СВ 0.9
{2.6}
+9.2 +8.7 97 +9 +9 1019.8 946.3 +9.2 +9.1
В 1.0
{2.7}
+9.5 +8.9 96 +9 +9 1019.9 946.4 +9.5 +9.2
СВ 1.0
{3.2}
+10.4 +9.1 92 +10 +10 1019.9 946.4 +10.4 +9.9
СВ 0.8
{2.9}
+10.9 +9.4 90 +11 +11 1019.8 946.3 +10.9 +10.4
СВ 0.9
{3.1}
+11.8 +9.4 85 +12 +12 1019.8 946.3 +11.8 +10.9
СВ 0.9
{2.2}
+16.8 +11.4 70 +18 +18 1019.0 945.6 +16.8 +16.2
СВ 1.3
{2.8}
+17.8 +12.2 70 +19 +19 1018.8 945.4 +17.8 +17.2
СВ 0.6
{1.6}
+21.5 +8.1 42 +23 +23 комфорт 1017.6 944.3 +21.5 +20.8
С 2.8
{6.2}
+23.2 +10.2 44 +25 +25 комфорт 1013.8 940.7 +23.4 +23.2
С 2.1
{5.9}
+23.3 +10.5 44 +25 +25 комфорт 1013.6 940.5 +23.5 +23.2
С 2.6
{5.7}
+23.1 +10.2 44 +25 +25 комфорт 1013.6 940.5 +23.4 +23.1
С 2.1
{5.5}
+22.8 +10.1 45 +25 +25 комфорт 1013.6 940.5 +23.2 +22.8
С 2.4
{6.3}
+22.8 +11.1 48 +25 +25 комфорт 1013.5 940.4 +22.9 +22.7
С 3.0
{6.2}
+22.4 +10.3 46 +24 +24 комфорт 1013.5 940.4 +22.8 +22.3
С 2.0
{5.7}
+22.3 +10.6 47 +24 +24 комфорт 1013.5 940.4 +22.3 +22.2
С 2.1
{6.2}
+22.0 +9.8 46 +24 +24 комфорт 1013.5 940.4 +22.3 +22.0
С 2.1
{5.5}
+21.9 +10.1 47 +24 +24 комфорт 1013.5 940.4 +22.0 +21.9
С 2.1
{5.7}
+21.4 +9.8 48 +23 +23 комфорт 1013.5 940.4 +21.9 +21.5
С 2.1
{5.5}
+21.0 +9.9 49 +23 +23 комфорт 1013.5 940.4 +21.4 +21.0
С 2.1
{7.4}
+20.6 +9.9 50 +23 +23 комфорт 1013.5 940.4 +21.0 +20.6
С 2.1
{5.8}
+19.7 +9.7 52 +21 +21 комфорт 1013.4 940.3 +20.2 +19.7
С 2.3
{6.1}
+19.4 +9.6 53 +21 +21 комфорт 1013.4 940.3 +19.7 +19.4
С 2.3
{6.9}
+18.7 +9.0 53 +20 +20 1013.3 940.2 +18.9 +18.6
С 2.3
{6.3}
+18.5 +9.3 55 +19 +19 1013.3 940.2 +18.7 +18.4
С 2.4
{4.9}
+18.2 +9.0 55 +19 +19 1013.4 940.3 +18.4 +18.2
С 2.2
{4.9}
+18.1 +8.7 54 +19 +19 1013.5 940.4 +18.2 +18.1
СВ 2.4
{6.8}
+18.0 +8.8 55 +18 +18 1013.6 940.5 +18.1 +17.9
СВ 2.1
{5.4}
+17.6 +8.9 57 +18 +18 1013.7 940.6 +17.9 +17.6
СВ 1.7
{4.6}
+17.3 +9.0 58 +18 +18 1013.7 940.6 +17.6 +17.3
СВ 2.2
{5.4}
+17.1 +9.2 60 +17 +17 1013.6 940.5 +17.2 +17.1
СВ 2.3
{5.3}
+17.0 +9.0 60 +17 +17 1013.6 940.5 +17.2 +17.0
СВ 2.0
{5.2}
+16.8 +9.3 61 +17 +17 1013.5 940.4 +17.0 +16.8
СВ 1.1
{5.0}
+16.5 +9.1 61 +17 +17 1013.5 940.4 +16.8 +16.5
СВ 1.3
{3.3}
+16.4 +9.1 62 +17 +17 1013.5 940.4 +16.5 +16.3
СВ 1.3
{4.3}
+16.4 +9.1 62 +17 +17 1013.5 940.4 +16.5 +16.3
В 0.6
{2.4}
+15.5 +9.3 67 +17 +17 1013.5 940.4 +15.9 +15.5
В 0.8
{2.9}
+15.2 +9.4 69 +16 +16 1013.4 940.3 +15.5 +15.2
СВ 1.0
{3.0}
+15.1 +9.3 68 +16 +16 1013.3 940.2 +15.2 +15.1
СВ 1.8
{3.8}
+15.2 +9.5 68 +15 +15 1013.2 940.1 +15.4 +15.1
В 0.9
{2.5}
+14.9 +9.5 70 +16 +16 1013.2 940.1 +15.3 +14.9
В 0.7
{2.6}
+14.7 +9.5 71 +16 +16 1013.1 940.0 +14.9 +14.7
В 0.7
{2.2}
+14.5 +9.5 72 +15 +15 1013.0 939.9 +14.7 +14.5
Ю 0.5
{1.6}
+14.2 +9.5 73 +15 +15 1012.8 939.7 +14.4 +14.1
С 0.6
{2.4}
+14.1 +9.5 74 +15 +15 1012.6 939.6 +14.2 +14.1
СВ 0.9
{2.8}
+14.1 +9.5 73 +15 +15 1012.5 939.5 +14.3 +14.1
В 0.9
{2.6}
+14.1 +9.6 74 +15 +15 1012.3 939.3 +14.3 +14.1
СВ 0.8
{3.0}
+14.2 +9.6 74 +15 +15 1012.2 939.2 +14.2 +14.1
ЮВ 0.7
{2.7}
+14.0 +9.6 75 +15 +15 1011.9 938.9 +14.2 +14.0
ЮВ 0.6
{1.7}
+13.8 +9.6 75 +15 +15 1011.8 938.8 +14.1 +13.7
ЮВ 0.7
{2.6}
+14.0 +9.6 75 +15 +15 1011.7 938.7 +14.1 +13.7
ЮВ 0.7
{3.2}
+13.8 +9.5 75 +15 +15 1011.6 938.6 +14.0 +13.7
ЮВ 1.0
{4.0}
+14.2 +9.4 73 +15 +15 1011.3 938.3 +14.3 +14.0
СВ 1.1
{3.8}
+14.0 +9.2 73 +14 +14 1011.3 938.3 +14.2 +14.0
СВ 1.6
{4.0}
+14.0 +9.2 73 +14 +14 1011.2 938.2 +14.0 +13.9
СВ 1.1
{3.2}
+13.9 +9.2 73 +14 +14 1011.1 938.1 +14.0 +13.8
СВ 1.0
{2.9}
+13.8 +9.1 74 +14 +14 1010.9 938.0 +13.9 +13.7
СВ 1.0
{3.0}
+13.7 +9.2 74 +14 +14 1010.9 938.0 +13.8 +13.7
Ю 0.6
{2.2}
+13.4 +9.2 76 +14 +14 1010.9 938.0 +13.7 +13.3
ЮВ 0.7
{2.5}
+13.5 +9.2 75 +14 +14 1010.9 938.0 +13.5 +13.4
ЮЗ 0.7
{2.5}
+13.5 +9.2 75 +14 +14 1010.8 937.9 +13.6 +13.4
С 0.5
{1.3}
+13.0 +9.5 79 +14 +14 1010.8 937.9 +13.5 +12.9
ЮВ 0.6
{2.1}
+12.6 +10.1 85 +13 +13 1010.8 937.9 +13.1 +12.6
В 0.6
{1.6}
+12.6 +10.6 88 +13 +13 1010.7 937.8 +12.6 +12.3
В 0.6
{1.7}
+12.4 +10.8 90 +13 +13 1010.7 937.8 +12.6 +12.4
В 0.7
{2.1}
+12.4 +11.1 92 +13 +13 1010.8 937.9 +12.4 +12.2
В 0.7
{1.8}
+12.5 +11.1 91 +13 +13 1010.8 937.9 +12.5 +12.3
ЮВ 0.7
{1.9}
+12.5 +10.8 90 +13 +13 1010.8 937.9 +12.5 +12.2
В 0.8
{2.1}
+13.2 +10.5 84 +14 +14 1010.8 937.9 +13.2 +13.0
ЮВ 0.7
{2.0}
+12.9 +10.4 85 +13 +13 1010.8 937.9 +13.3 +12.9
В 0.7
{2.2}
+12.8 +10.5 86 +13 +13 1010.8 937.9 +12.9 +12.8
СВ 1.1
{3.2}
+13.0 +10.5 85 +13 +13 1010.9 938.0 +13.1 +12.8
В 0.9
{2.5}
+12.9 +10.6 86 +13 +13 1010.9 938.0 +13.0 +12.9
В 0.8
{2.4}
+12.9 +10.9 88 +13 +13 1010.9 938.0 +13.0 +12.8
В 0.9
{2.7}
+13.9 +10.9 82 +14 +14 1010.9 938.0 +13.9 +13.4
ЮВ 0.8
{2.8}
+14.3 +11.0 81 +15 +15 1010.9 938.0 +14.3 +13.8
В 0.8
{2.3}
+14.9 +11.2 78 +16 +16 1010.8 937.9 +14.9 +14.3
В 0.8
{2.5}
+15.8 +11.0 73 +17 +17 1010.7 937.8 +15.9 +15.2
СВ 0.9
{3.0}
+17.5 +11.6 69 +19 +19 1010.7 937.8 +17.5 +16.3
СВ 1.3
{3.3}
+18.1 +12.4 70 +19 +19 1010.7 937.8 +18.1 +17.5
СВ 1.0
{2.7}
+18.6 +12.4 67 +20 +20 1010.7 937.8 +18.6 +18.1
СЗ 1.9
{4.0}
+25.5 +13.7 48 +28 +28 жарко 1010.7 937.8 +25.5 +25.0
СЗ 2.0
{4.2}
+24.9 +12.6 46 +27 +27 жарко 1010.7 937.8 +25.5 +24.8
З 1.9
{4.2}
+25.0 +13.2 48 +27 +27 жарко 1010.7 937.8 +25.3 +24.6
З 1.8
{4.2}
+25.6 +13.0 46 +28 +28 жарко 1010.7 937.8 +25.6 +24.9
СЗ 1.9
{5.4}
+25.5 +11.9 43 +27 +27 жарко 1010.6 937.7 +25.7 +25.2
СЗ 1.8
{3.4}
+25.5 +12.3 44 +27 +27 жарко 1010.6 937.7 +25.6 +25.2
З 1.4
{3.8}
+25.9 +12.3 43 +27 +27 жарко 1010.5 937.6 +26.0 +25.3
З 1.6
{4.2}
+25.9 +12.2 42 +27 +27 жарко 1010.5 937.6 +26.2 +25.3
СЗ 1.9
{4.9}
+26.2 +8.9 34 +27 +27 жарко 1010.5 937.6 +26.4 +25.9
З 1.7
{4.2}
+26.3 +8.9 33 +27 +27 жарко 1010.5 937.6 +26.5 +25.9
З 1.7
{3.8}
+26.5 +10.1 36 +27 +27 жарко 1010.5 937.6 +26.9 +25.9
З 1.8
{5.4}
+26.7 +13.4 44 +29 +29 жарко 1010.4 937.5 +26.7 +25.7
СЗ 1.8
{5.6}
0.1 +26.9 +11.7 39 +28 +28 жарко 1010.3 937.4 +27.3 +26.2
СЗ 1.7
{4.5}
0.5 +26.4 +10.6 37 +27 +27 жарко 1010.3 937.4 +26.9 +26.2
СЗ 2.4
{4.4}
0.5 +25.5 +10.4 39 +26 +26 жарко 1010.4 937.5 +26.4 +25.5
ЮЗ 1.6
{4.3}
+24.8 +10.9 42 +26 +26 жарко 1010.4 937.5 +25.5 +24.8
СЗ 1.6
{3.9}
+24.4 +11.5 44 +26 +26 жарко 1010.4 937.5 +24.9 +24.4
СЗ 1.1
{2.7}
+24.3 +13.2 50 +26 +26 жарко 1010.5 937.6 +24.4 +24.3
СЗ 0.9
{2.0}
+24.1 +12.0 47 +26 +26 жарко 1010.8 937.9 +24.3 +24.1
ЮВ 4.4
{11.8}
+18.4 +12.4 68 +19 +19 1011.7 938.7 +19.4 +18.5 0.1
Ю 3.8
{10.1}
+17.5 +14.3 81 +17 +17 1011.9 938.9 +18.4 +17.5 1.3
ЮВ 3.6
{8.7}
+17.2 +15.5 90 +17 +17 1011.9 938.9 +17.5 +17.1 0.8
ЮВ 3.8
{8.1}
+17.0 +14.6 86 +17 +17 1011.9 938.9 +17.2 +17.0 0.2
ЮВ 3.1
{6.9}
+16.8 +14.8 88 +17 +17 1012.0 939.0 +17.0 +16.8 0.2
ЮВ 3.7
{6.8}
+16.8 +14.5 86 +16 +16 1012.2 939.2 +16.8 +16.7 0.3
ЮВ 4.0
{9.8}
+16.7 +14.4 86 +16 +16 1012.2 939.2 +16.8 +16.7 0.3
ЮВ 4.3
{8.7}
+16.6 +14.8 90 +16 +16 1012.2 939.2 +16.7 +16.6 0.2
ЮВ 3.7
{6.9}
+16.4 +15.4 94 +16 +16 1012.3 939.3 +16.6 +16.3 0.3
ЮВ 3.8
{7.5}
+16.2 +15.1 93 +15 +15 1012.3 939.3 +16.4 +16.2 0.6
Местоположение метеостанции Шахрисабз (Кашкадарьинская область, Узбекистан): широта 39.07 долгота 66.83 высота над уровнем моря 0 м.
В архиве по умолчанию представлена погода в Шахрисабзе за последние 1-2 суток. Обновление информации о фактической погоде в базе происходит ежечасно! Архивные данные за месяц целиком и за предыдущие месяцы Вы можете получить, выбрав интересующий диапазон дат из раскрывающегося списка и нажав кнопку "Ввод!".
*Определитесь, кто Вы:
Внимание! Время в таблицах - местное (без учета летнего времени). Для получения всемирного времени необходимо вычесть поправку, которая равна 5 ч.
Смотрите также архив погоды на ближайших метеорологических станциях:
Партнеры нашего сайта:      
Пояснения к столбцам:
  • Ветер - указаны скорость ветра в м/с - средняя за 10 мин, порывы в срок и между сроками (в фигурных скобках) и направление, откуда дует ветер: С - северный,
  • СВ - северо-восточный, В - восточный, ЮВ - юго-восточный, Ю - южный, ЮЗ - юго-западный, З - западный, СЗ - северо-западный.
  • Видимость - горизонтальная дальность видимости в метрах или километрах. При видимости от 1 до 10 км при отсутствии осадков обычно наблюдается дымка, при ухудшении видимости до 1 км и менее - туман. В сухую погоду видимость может ухудшаться дымом, пылью или мглою.
  • Явления - указаны атмосферные явления, наблюдавшиеся в срок или в последний час перед сроком.
  • Солнечная радиация - мощность потока солнечного излучения на поверхность земли и предметов в Вт/м2.
  • T - Температура воздуха - температура, измеренная на высоте 2 м над землей.
  • Td - Температура точки росы - температура, при понижении до которой содержащийся в воздухе водяной пар достигнет насыщения.
  • f - Относительная влажность воздуха - влажноcть воздуха, измеренная на высоте 2 м над землей.
  • Te - Эффективная температура - температура, которую ощущает одетый по сезону человек в тени. Характеристика душности погоды. При расчете учитывается влияние влажности воздуха и скорости ветра на теплоощущения человека.
  • Tes - Эффективная температура на солнце - температура, которую ощущает человек, с поправкой на солнечный нагрев. Характеристика знойности погоды. Зависит от высоты солнца над горизонтом, облачности и скорости ветра. Ночью, в пасмурную погоду, а также при ветре 12 м/с и более поправка равна нулю.
  • P - Атмосферное давление - приведенное к уровню моря атмосферное давление.
  • Po - Атмосферное давление - измеренное на уровне метеостанции атмосферное давление.
  • Tmin - Минимальная температура - минимум температуры воздуха на высоте 2 м над землей.
  • Tmax - Максимальная температура - максимум температуры воздуха на высоте 2 м над землей.
  • R - Количество осадков - Количество выпавших осадков за период времени, мм. При наведении курсора мыши на число - период времени, за который выпало указанное количество осадков.